Regional Weather Roundup
Issued by NWS

Home | Current Version | Previous Version | Graphics & Text | Print | Product List | Glossary On
Versions: 1 2 3 4 5 6 7 8 9 10 11 12 13 14 15 16 17 18 19 20 21 22 23 24 25 26 27 28 29 30 31 32 33 34 35 36 37 38 39 40 41 42 43 44 45 46 47 48 49 50
000
ASUS44 KMEG 250600
RWRTN
TENNESSEE HOURLY STATE WEATHER ROUNDUP
NATIONAL WEATHER SERVICE MEMPHIS TN
100 AM CDT FRI JUL 25 2014

TNZ002-004-019-021-049-052-054-088>092-250700-
WEST TENNESSEE

CITY           SKY/WX    TMP DP  RH WIND       PRES   REMARKS
MEMPHIS INTL   CLEAR     72  61  68 N5        30.03F
NWS MEMPHIS      N/A     67 N/A N/A MISG        N/A
JACKSON        CLEAR     63  60  90 CALM      30.03F
DYERSBURG      CLEAR     64  54  68 CALM      30.05S
UNION CITY     CLEAR     61  61 100 CALM      30.03F
PARIS          CLEAR     59  55  88 N3        30.05R
LEXINGTON      CLEAR     63  61  94 CALM      30.03S
SAVANNAH       CLEAR     63  63 100 CALM      30.03S
$$

TNZ008-025-027-028-033-062-065-066-250700-
NORTH MIDDLE TENNESSEE

CITY           SKY/WX    TMP DP  RH WIND       PRES   REMARKS
NASHVILLE      CLEAR     68  58  70 NE6       30.04S
CLARKSVILLE    CLEAR     65  55  70 CALM      30.04S
COOKEVILLE       N/A     61  61 100 CALM      30.05S VSB 3/4
CROSSVILLE     CLEAR     62  60  93 NE5       30.08F FOG
$$

TNZ061-075-076-078-094-096-097-250700-
SOUTH MIDDLE TENNESSEE

CITY           SKY/WX    TMP DP  RH WIND       PRES   REMARKS
FAYETTEVILLE   CLEAR     64  63  94 NE10G23   30.03S
TULLAHOMA      CLEAR     66  63  88 E5        30.05S
WINCHESTER     CLEAR     64  63  94 CALM      30.04S
MCMINNVILLE    CLEAR     64  64 100 CALM      30.05S
COLUMBIA       CLEAR     66  64  94 CALM      30.02S
SHELBYVILLE    CLEAR     64  64 100 NE3       30.04S
$$

TNZ017-018-042-046-047-250700-
NORTHEAST TENNESSEE

CITY           SKY/WX    TMP DP  RH WIND       PRES   REMARKS
TRI CITIES     CLOUDY    65  60  84 CALM      30.07S
ELIZABETHTON   CLOUDY    64  63  94 CALM      30.06R
$$

TNZ012-013-036-069-073-074-250700-
CENTRAL EAST TENNESSEE

CITY           SKY/WX    TMP DP  RH WIND       PRES   REMARKS
KNOXVILLE      CLOUDY    66  63  90 N5        30.03F
OAK RIDGE      CLEAR     64  61  90 E3        30.05F
GATLINBURG     CLOUDY    68  63  83 CALM      30.04F
$$

TNZ083-085-099-250700-
SOUTHEAST TENNESSEE

CITY           SKY/WX    TMP DP  RH WIND       PRES   REMARKS
CHATTANOOGA    CLEAR     71  63  75 NE7       30.03S
$$

SKY/WX REPORTED AS FAIR MEANS FEW OR NO CLOUDS BELOW
12 THOUSAND FEET.



USA.gov is the U.S. government's official web portal to all federal, state and local government web resources and services.